Flugplatz Weipertshofen (UL)

Hier findest Du alle Informationen zum Flugplatz Weipertshofen (UL).

Informationen für Piloten zum Flugplatz Weipertshofen

Hier findest Du alle relevanten Informationen, die Du als Pilot benötigst, um Weipertshofen anzufliegen.

Flugplatz: Weipertshofen ICAO-Code: UL Flugplatz
Frequenz Turm: 123.35 Mhz GAFOR Gebiet: 52
Frequenz Ground: 123.35 Mhz Mogas: ja
Platzrunde: N 2300 ft Landegebühr: 0 €
Platzhöhe: Sunrise: 06:01 Uhr UTC
Pisten: 11/29 - 450 m x 25 m, GRAS Sunset: 16:05 Uhr UTC

Mitglieder, die in Weipertshofen fliegen

Flugwetter am Flugplatz Weipertshofen

Die METAR Information stammen aus EDDS (79.34 km entfernt).

METAR Code:
2020/10/26 16:20
EDDS 261620Z 20004KT 150V250 9999 FEW005 BKN026 08/06 Q1007 NOSIG

Flugschulen am Flugplatz Weipertshofen

Am Flugplatz Weipertshofen gibt es leider keine Flugschule.

Benachbarte Flugplätze und Flugschulen

Es gibt 25 weitere Flugplätze in einem Umkreis von 50 km um den Flugplatz Weipertshofen.

Jetzt anmelden

Passwort vergessen

Umfrage Archiv

Wären Rettungsgeräte keine Pflicht mehr, würdet Ihr Euer UL trotzdem mit einem ausstatten?

Ja
86.1 %
Nein
13.9 %
Stimmen: 360 | Diskussion
Anzeige: Roland Aircraft
Statistik Alle Mitglieder

Aktuell sind 46 Besucher online.

Anzeige: VFR Sprechfunk Simulator


Anzeige: Pocket FMS